EHI
2 2 2 1 0 0 0 0 0 0 0 0 0 0 0 0 0 0 0 0 0 0 0 0 0 0 0 0 0 0 0 0 0 0 0 0 0 0 0 0 0 0 0
1 1 1 1 0 0 0 0 0 0 0 0 0 0 0 0 0 0 0 0 0 0 0 0 0 0 0 0 0 0 0 0 0 0 0 0 0 0 0 0 0 0 0
1 1 1 1 1 0 0 1 0 0 0 0 0 0 0 0 0 0 0 0 0 0 0 0 0 0 0 0 0 0 0 0 0 0 0 0 0 0 0 0 0 0 0
1 2 2 2 1 0 0 0 0 0 0 0 0 0 0 0 0 0 0 0 0 0 0 0 0 0 0 0 0 0 0 0 0 0 0 0 0 0 0 0 0 0 0
0 1 2 2 1 0 0 0 0 0 0 0 0 0 0 0 0 0 0 0 0 0 0 0 0 0 0 0 0 0 0 0 0 0 0 0 0 0 0 0 0 0 0
0 0 1 1 0 0 0 0 0 1 2 1 0 0 0 0 0 0 0 0 0 0 0 0 0 0 0 0 0 0 0 0 0 0 0 0 0 0 0 0 0 0 0
0 0 0 0 0 0 0 0 0 1 2 1 0 0 0 0 0 0 0 0 0 0 0 0 0 0 0 0 0 0 0 0 0 0 0 0 0 0 0 0 0 0 0
0 0 0 0 0 0 0 0 0 1 1 1 0 1 1 1 0 0 0 0 0 0 0 0 0 0 0 0 0 0 0 0 0 0 0 0 0 0 0 0 0 0 0
0 0 0 0 0 0 0 0 0 0 0 0 0 1 1 1 0 0 0 0 0 0 0 0 0 0 0 0 0 0 0 0 0 0 0 0 0 0 0 0 0 0 0
0 0 0 0 0 0 0 0 0 0 0 0 0 0 0 0 0 0 0 1 0 0 0 0 0 0 0 0 0 0 0 0 0 0 0 0 0 0 0 0 0 0 0
0 0 0 0 0 0 0 0 0 0 0 0 0 0 0 0 0 0 0 0 0 0 0 0 0 0 0 0 0 0 0 0 0 0 0 0 0 0 0 0 0 0 0
0 0 0 0 0 0 0 0 0 0 0 0 0 0 0 0 0 0 0 0 0 0 0 0 0 0 0 0 0 0 0 0 0 0 0 0 0 0 0 0 0 0 0
0 0 0 0 0 0 0 0 0 0 0 0 0 0 0 0 0 0 0 0 0 0 0 0 0 0 0 0 0 0 0 0 0 0 0 0 0 0 0 0 0 0 0
0 0 0 0 0 0 0 0 0 0 0 0 0 0 0 0 0 0 0 0 0 0 0 0 0 0 0 0 0 0 0 0 0 0 0 0 0 0 0 0 0 0 0
0 0 0 0 0 0 0 0 0 0 0 0 0 0 0 0 0 0 0 0 0 0 0 0 0 0 0 0 0 0 0 0 0 0 0 0 0 0 0 0 0 0 0
0 0 0 0 0 0 0 0 0 0 0 0 0 0 0 0 0 0 0 0 0 0 0 0 0 0 0 0 0 0 0 0 0 0 0 0 0 0 0 0 0 0 0
0 0 0 0 0 0 0 0 0 0 0 0 0 0 0 0 0 0 0 0 0 0 0 0 0 0 0 0 0 0 0 0 0 0 0 0 0 0 0 0 0 0 0
0 0 0 0 0 0 0 0 0 0 0 0 0 0 0 0 0 0 0 0 0 0 0 0 0 0 0 0 0 0 0 0 0 0 0 0 0 0 0 0 0 0 0
0 0 0 0 0 0 0 0 0 0 0 0 0 0 0 0 0 0 0 0 0 0 0 0 0 0 0 0 0 0 0 0 0 0 0 0 0 0 0 0 0 0 0
0 0 0 0 0 0 0 0 0 0 0 0 0 0 0 0 0 0 0 0 0 0 0 0 0 0 0 0 0 0 0 0 0 0 0 0 0 0 0 0 0 0 0
0 0 0 0 0 0 0 0 0 0 0 0 0 0 0 0 0 0 0 0 0 0 0 0 0 0 0 0 0 0 0 0 0 0 0 0 0 0 0 0 0 0 0
0 0 0 0 0 0 0 0 0 0 0 0 0 0 0 0 0 0 0 0 0 0 0 0 0 0 0 0 0 0 0 0 0 0 0 0 0 0 0 0 0 0 0
0 0 0 0 0 0 0 0 0 0 0 0 0 0 0 0 0 0 0 0 0 0 0 0 0 0 0 0 0 0 0 0 0 0 0 0 0 0 0 0 0 0 0
0 0 0 0 0 0 0 0 0 0 0 0 0 0 0 0 0 0 0 0 0 0 0 0 0 0 0 0 0 0 0 0 0 0 0 0 0 0 0 0 0 0 0
0 0 0 0 0 0 0 0 0 0 0 0 0 0 0 0 0 0 0 0 0 0 0 0 0 0 0 0 0 0 0 0 0 0 0 0 0 0 0 0 0 0 0
0 0 0 0 0 0 0 0 0 0 0 0 0 0 0 0 0 0 0 0 0 0 0 0 0 0 0 0 0 0 0 0 0 0 0 0 0 0 0 0 0 0 0
Wind_Speed
3 2 2 2 2 2 3 3 4 4 5 5 5 4 4 4 4 4 4 4 5 5 5 6 7 7 6 6 6 6 6 6 8 5 3 3 4 6 6 8 8 8 9
3 2 2 2 3 3 3 3 3 3 3 4 4 4 4 4 3 4 4 4 4 4 4 5 6 5 7 6 5 7 6 7 7 8 5 4 6 5 6 7 7 7 7
3 3 3 2 2 1 2 2 2 2 3 3 4 4 4 4 4 4 4 4 4 4 4 4 4 5 5 5 5 5 5 6 6 6 5 3 3 3 5 5 7 6 7
5 5 5 4 3 2 2 1 0 1 2 3 4 4 4 4 5 5 5 4 4 4 3 4 4 4 4 4 4 5 5 5 5 5 4 3 3 2 3 4 5 5 6
7 7 6 5 4 3 3 2 2 2 3 3 4 4 4 4 4 4 5 4 4 4 4 4 2 1 3 2 2 2 3 3 4 4 4 3 3 3 4 3 3 3 4
9 8 7 6 6 5 4 4 3 2 2 2 4 4 4 4 1 2 6 5 5 5 4 4 3 4 4 4 2 2 3 3 2 2 2 3 3 4 3 3 3 2 3
9 9 8 7 7 6 5 5 4 3 2 2 2 2 3 1 1 4 8 7 6 5 5 4 3 3 4 4 6 7 5 3 4 4 2 2 2 3 4 4 3 3 3
9 9 8 8 7 7 6 6 5 4 3 3 3 3 2 2 2 3 5 9 7 6 6 5 5 5 3 3 3 4 3 4 4 5 3 2 1 1 3 3 3 3 2
9 9 8 8 8 8 8 7 6 5 5 5 5 5 4 3 5 4 4 6 5 6 5 4 4 3 4 1 5 4 3 2 2 3 5 4 3 1 2 2 3 2 2
8 8 8 8 8 8 8 7 6 5 5 5 6 6 6 6 8 6 4 3 4 4 3 3 1 2 2 2 5 3 3 1 1 3 4 5 5 5 7 6 4 3 2
7 7 7 8 8 8 7 7 6 6 6 6 6 6 7 7 8 9 7 2 2 2 2 2 2 2 1 2 4 2 2 3 2 2 1 1 1 1 3 4 3 3 3
5 6 7 7 7 6 7 7 7 7 7 7 6 6 6 6 8 9 9 7 5 0 1 1 3 4 2 1 1 2 1 3 2 1 1 1 1 1 1 1 2 2 2
4 5 6 6 6 6 7 7 7 7 6 6 6 6 6 6 6 7 6 7 6 3 4 7 7 4 2 3 4 2 1 1 1 1 1 2 2 2 2 1 1 1 1
4 4 5 5 6 6 5 6 6 6 6 6 6 6 6 6 7 6 4 3 4 4 5 6 6 5 4 4 3 2 2 2 2 2 2 1 1 1 2 2 2 1 1
3 4 4 5 5 5 5 5 6 7 7 6 5 5 6 6 8 9 7 5 5 4 3 4 4 4 4 4 4 4 3 2 2 2 2 2 2 2 2 2 2 2 2
3 4 3 3 3 3 3 5 5 5 7 9 10 9 6 8 8 9 10 10 9 6 4 5 5 5 5 4 4 4 4 4 3 3 2 2 2 2 2 1 2 2 2
2 3 2 3 3 3 3 4 4 4 5 9 11 12 12 10 10 9 8 9 10 7 7 6 6 5 5 5 5 4 4 4 4 3 3 3 3 3 2 2 2 3 3
2 2 2 2 2 3 4 4 4 4 4 5 8 10 10 11 12 10 7 5 8 8 7 6 6 6 5 5 5 5 4 4 4 4 4 4 3 3 3 3 3 4 4
2 2 2 2 2 3 3 3 4 4 4 4 5 6 6 5 8 10 8 8 7 7 6 6 6 5 5 5 5 5 5 4 5 4 4 4 4 4 3 3 3 3 4
2 3 1 1 2 2 2 3 3 3 4 4 5 5 4 5 6 7 7 7 6 6 6 5 5 6 5 5 5 5 4 5 5 5 4 4 4 4 4 4 4 4 3
3 5 4 2 1 2 2 2 2 3 3 4 4 5 6 5 5 6 5 5 5 5 5 5 5 5 5 5 4 5 5 4 5 5 4 5 4 4 4 4 4 4 4
3 3 3 2 2 2 1 2 2 2 3 3 3 4 2 3 4 4 4 4 4 4 4 4 4 4 4 4 4 4 4 4 5 5 4 4 4 4 4 4 4 4 4
3 3 3 3 3 3 3 2 2 2 2 2 2 2 2 3 3 3 3 3 3 4 4 4 4 3 3 3 4 4 4 4 4 5 5 4 4 4 4 5 5 5 5
4 4 4 4 3 3 3 3 2 2 1 2 2 2 2 2 2 2 2 2 3 3 3 3 3 4 5 4 3 4 5 6 6 4 4 4 4 4 4 4 4 5 4
4 4 4 4 4 4 3 3 3 3 3 2 2 2 2 2 2 2 2 2 2 3 3 3 2 3 4 5 5 6 7 7 6 6 3 3 3 4 4 4 4 4 5
5 5 4 4 4 4 4 4 4 3 3 2 2 2 2 2 2 2 2 2 2 2 2 2 3 3 4 4 7 7 7 6 6 7 5 3 4 4 4 4 5 4 5
Wind_Direction
43 63 94 118 145 163 177 180 171 165 168 170 163 160 156 161 167 174 194 193 213 218 222 230 232 231 232 232 231 231 230 232 245 241 214 223 222 229 192 219 216 199 194
47 71 97 129 154 164 160 155 162 155 167 172 162 165 156 163 174 179 180 194 210 217 221 227 232 228 231 231 229 230 229 228 238 247 225 217 227 234 223 211 213 216 218
45 61 67 70 78 98 124 134 156 161 171 180 182 181 174 177 181 193 193 197 208 217 223 233 237 233 234 232 229 231 232 230 231 243 236 209 214 222 227 220 218 217 224
49 53 52 50 39 25 41 58 259 228 218 216 212 206 200 201 202 202 208 205 209 209 219 234 238 235 242 237 234 235 233 231 228 233 231 204 182 192 217 214 212 209 221
47 46 40 39 35 29 28 20 356 317 279 254 241 231 221 227 224 225 223 221 220 209 218 227 231 327 348 310 292 272 243 234 227 225 225 207 187 178 198 204 218 213 231
45 42 37 38 41 37 30 24 22 347 307 277 257 247 232 234 163 239 261 233 231 225 220 213 183 200 185 202 246 309 315 296 270 232 224 219 207 194 184 186 196 201 224
47 44 37 38 40 36 33 32 22 11 358 326 307 285 261 216 136 227 237 254 239 234 230 213 197 194 221 207 183 202 216 229 266 290 271 244 211 193 187 193 203 212 219
45 44 38 34 37 37 36 32 23 21 20 10 5 355 341 32 4 273 233 240 236 229 231 234 222 210 203 268 236 231 227 209 224 253 276 293 312 179 196 206 203 212 226
39 36 33 33 35 34 33 26 19 23 31 30 26 18 14 30 19 336 263 235 235 230 224 237 254 232 110 275 260 251 242 214 175 264 321 336 4 315 238 215 202 205 230
36 36 37 36 36 35 31 26 24 27 30 33 35 29 25 23 23 6 302 246 235 220 208 208 181 301 106 221 255 259 259 243 244 200 221 218 227 205 209 234 231 230 236
34 39 39 37 39 34 32 30 28 32 36 37 39 38 32 24 24 23 3 312 265 223 198 198 144 140 187 221 268 294 6 332 296 292 294 293 257 229 213 230 235 245 253
40 43 43 40 36 34 37 34 32 31 37 36 35 34 30 28 26 23 22 17 347 330 136 114 95 103 116 155 245 61 43 287 283 286 295 333 351 353 338 313 274 258 265
44 46 44 47 46 37 35 35 34 31 30 29 29 27 23 20 25 25 34 40 24 36 65 68 74 78 133 123 90 80 232 264 328 333 16 32 23 7 3 358 355 335 299
37 39 44 42 49 49 41 36 36 29 27 26 25 23 21 26 19 10 23 61 85 86 94 102 102 80 76 77 113 111 60 39 12 27 45 53 50 35 27 5 355 335 307
34 41 48 53 51 54 62 42 36 45 26 15 15 18 20 25 18 12 18 34 40 49 69 85 78 78 69 63 61 55 49 59 56 53 56 52 45 50 44 26 4 344 338
34 38 40 53 59 54 73 98 74 50 45 38 29 19 55 44 32 41 49 49 45 34 60 70 63 59 55 51 52 51 43 37 32 31 33 29 19 17 25 24 0 343 335
44 47 50 48 59 61 57 63 96 115 101 65 48 42 46 46 46 45 52 60 48 43 60 59 53 47 43 40 41 42 37 29 27 30 29 24 15 8 3 4 359 348 346
92 83 60 71 60 62 64 63 59 65 81 85 74 56 49 50 43 32 23 58 60 52 50 48 43 39 38 37 35 32 32 28 26 27 26 20 14 6 6 3 5 359 346
156 114 92 80 82 79 77 75 73 70 70 71 79 81 67 73 65 41 33 51 53 49 46 44 37 32 32 32 31 29 30 28 23 21 19 13 8 1 3 2 360 0 336
145 96 103 128 119 112 102 90 84 81 73 63 56 45 47 51 52 49 47 47 48 44 40 40 36 31 28 26 24 21 24 25 19 17 10 4 359 352 353 352 349 346 343
167 148 174 190 136 118 111 102 97 92 84 78 67 47 14 48 57 50 45 44 42 40 39 37 38 32 28 23 21 22 24 23 17 8 4 359 354 350 345 342 342 343 341
183 169 174 162 151 151 137 128 116 109 106 99 105 104 62 56 66 63 55 49 45 40 33 33 41 37 24 18 14 13 13 12 7 2 356 350 347 346 342 344 347 346 349
194 180 174 169 169 153 188 176 165 152 131 115 103 97 93 77 74 68 62 53 43 42 40 39 45 41 31 25 20 9 3 0 352 344 341 343 346 347 347 349 353 354 2
199 195 186 180 184 193 196 189 186 179 172 154 136 114 112 112 101 90 76 64 55 54 52 48 40 33 30 22 16 16 13 354 335 330 338 336 343 350 353 355 1 6 6
208 203 198 196 194 202 205 200 202 199 194 191 173 148 144 141 130 118 106 86 71 70 64 55 45 33 25 29 24 21 10 352 345 337 325 339 359 5 4 6 13 17 14
213 210 205 204 206 209 213 212 210 212 209 199 190 175 168 163 153 149 143 125 113 100 85 68 51 41 28 33 34 17 6 5 1 339 329 14 30 25 14 23 26 27 27